Falfurrias, TX

7:10 AM CST on December 08, 2019 (GMT -0600)
Falfurrias

Weather History for KBKS - October, 2019

Change the Weather History Date:

Sunday, October 6, 2019

  Actual Average (KNQI) Record (KNQI)
Temperature  
Mean Temperature 82 °F -  
Max Temperature 95 °F 83 °F 95 °F (2011)
Min Temperature 71 °F 65 °F 57 °F (2010)
Cooling Degree Days 18    
Growing Degree Days 32 (Base 50)    
Moisture  
Dew Point 70 °F    
Average Humidity 72    
Maximum Humidity 92    
Minimum Humidity 37    
Precipitation  
Precipitation 0.00 in - - ()
Sea Level Pressure  
Sea Level Pressure 29.93 in    
Wind  
Wind Speed 1 mph ()    
Max Wind Speed 10 mph    
Max Gust Speed -    
Visibility 8.7 miles    
Events      
Averages and records for this station are not official NWS values.
T = Trace of Precipitation, MM = Missing Value Source: Averaged Metar Reports

Daily Weather History Graph

Daily Weather History Graph

Search for Another Location

Airport or City:

Astronomy

Oct. 06, 2019 Rise Set
Actual Time 7:27 AM CDT 7:13 PM CDT
Civil Twilight 7:04 AM CDT 7:36 PM CDT
Nautical Twilight 6:37 AM CDT 8:03 PM CDT
Astronomical Twilight 6:10 AM CDT 8:30 PM CDT
Moon 3:14 PM CDT (10/6) 1:06 AM CDT (10/6)
Length of Visible Light 12h 32m
Length of Day
11h 45m
First Quarter, 60% of the Moon is Illuminated
Oct 6
First Quarter
Oct 13
Full
Oct 21
Last Quarter
Oct 27
New
Nov 4
First Quarter

Hourly Weather History & Observations

Time (CDT) Temp. Heat Index Dew Point Humidity Pressure Visibility Wind Dir Wind Speed Gust Speed Precip Events Conditions
12:15 AM 77.0 °F - 72.9 °F 87% 29.93 in 10.0 mi Calm Calm - N/A   Clear
12:35 AM 76.5 °F - 72.5 °F 87% 29.93 in 10.0 mi Calm Calm - N/A   Clear
12:55 AM 76.6 °F - 72.5 °F 87% 29.93 in 10.0 mi Calm Calm - N/A   Clear
1:15 AM 75.9 °F - 72.0 °F 87% 29.93 in 10.0 mi Calm Calm - N/A   Clear
1:35 AM 75.2 °F - 71.8 °F 89% 29.93 in 10.0 mi Calm Calm - N/A   Clear
1:55 AM 75.2 °F - 72.0 °F 90% 29.93 in 10.0 mi Calm Calm - N/A   Clear
2:15 AM 75.2 °F - 71.8 °F 89% 29.93 in 10.0 mi Calm Calm - N/A   Clear
2:35 AM 75.2 °F - 72.0 °F 90% 29.93 in 7.0 mi Calm Calm - N/A   Clear
2:55 AM 74.5 °F - 71.2 °F 90% 29.93 in 7.0 mi West 3.5 mph - N/A   Clear
3:15 AM 74.7 °F - 71.2 °F 89% 29.92 in 10.0 mi Calm Calm - N/A   Clear
3:35 AM 74.5 °F - 71.2 °F 90% 29.92 in 7.0 mi Calm Calm - N/A   Clear
3:55 AM 73.6 °F - 70.3 °F 90% 29.91 in 7.0 mi Calm Calm - N/A   Clear
4:15 AM 73.4 °F - 70.7 °F 91% 29.91 in 4.0 mi Calm Calm - N/A   Clear
4:35 AM 72.5 °F - 69.4 °F 90% 29.91 in 7.0 mi Calm Calm - N/A   Clear
4:55 AM 72.5 °F - 69.6 °F 91% 29.91 in 7.0 mi Calm Calm - N/A   Clear
5:15 AM 72.5 °F - 69.4 °F 90% 29.92 in 7.0 mi Calm Calm - N/A   Clear
5:35 AM 71.8 °F - 69.1 °F 91% 29.92 in 5.0 mi Calm Calm - N/A   Clear
5:55 AM 71.8 °F - 69.1 °F 91% 29.92 in 5.0 mi North 3.5 mph - N/A   Clear
6:15 AM 71.6 °F - 68.9 °F 91% 29.93 in 4.0 mi Calm Calm - N/A   Clear
6:35 AM 71.6 °F - 69.1 °F 92% 29.93 in 5.0 mi Calm Calm - N/A   Clear
6:55 AM 71.8 °F - 69.1 °F 91% 29.93 in 7.0 mi Calm Calm - N/A   Clear
7:15 AM 71.8 °F - 69.1 °F 91% 29.93 in 5.0 mi Calm Calm - N/A   Clear
7:35 AM 71.1 °F - 68.4 °F 91% 29.93 in 4.0 mi Calm Calm - N/A   Clear
7:55 AM 71.2 °F - 68.7 °F 92% 29.94 in 4.0 mi Calm Calm - N/A   Scattered Clouds
8:15 AM 72.1 °F - 69.8 °F 92% 29.95 in 2.0 mi Calm Calm - N/A   Mostly Cloudy
8:35 AM 73.4 °F - 70.9 °F 92% 29.95 in 2.0 mi Calm Calm - N/A   Scattered Clouds
8:55 AM 75.0 °F - 72.3 °F 91% 29.96 in 4.0 mi Calm Calm - N/A   Clear
9:15 AM 76.8 °F - 73.4 °F 89% 29.96 in 5.0 mi Calm Calm - N/A   Clear
9:35 AM 79.2 °F - 74.3 °F 85% 29.97 in 10.0 mi Calm Calm - N/A   Clear
9:55 AM 81.7 °F 87.6 °F 74.1 °F 78% 29.98 in 10.0 mi Calm Calm - N/A   Clear
10:15 AM 83.7 °F 90.1 °F 73.4 °F 71% 29.98 in 10.0 mi Calm Calm - N/A   Clear
10:35 AM 85.3 °F 91.1 °F 72.0 °F 64% 29.99 in 10.0 mi East 3.5 mph - N/A   Scattered Clouds
10:55 AM 84.7 °F 89.7 °F 70.7 °F 63% 29.99 in 10.0 mi Calm Calm - N/A   Scattered Clouds
11:15 AM 86.7 °F 92.1 °F 71.1 °F 59% 29.99 in 10.0 mi NNE 4.6 mph - N/A   Scattered Clouds
11:35 AM 86.7 °F 91.7 °F 70.5 °F 58% 29.98 in 10.0 mi NE 4.6 mph - N/A   Scattered Clouds
11:55 AM 87.6 °F 93.1 °F 70.5 °F 57% 29.98 in 10.0 mi ENE 4.6 mph - N/A   Scattered Clouds
12:15 PM 89.2 °F 94.1 °F 69.4 °F 52% 29.98 in 10.0 mi East 5.8 mph - N/A   Clear
12:35 PM 89.4 °F 93.5 °F 68.5 °F 50% 29.97 in 10.0 mi SE 4.6 mph - N/A   Clear
12:55 PM 90.7 °F 95.4 °F 69.1 °F 49% 29.96 in 10.0 mi Calm Calm - N/A   Clear
1:15 PM 91.2 °F 93.7 °F 66.0 °F 43% 29.95 in 10.0 mi ESE 3.5 mph - N/A   Clear
1:35 PM 91.4 °F 95.4 °F 67.8 °F 46% 29.94 in 10.0 mi ENE 6.9 mph - N/A   Clear
1:55 PM 91.9 °F 93.7 °F 64.8 °F 40% 29.93 in 10.0 mi Calm Calm - N/A   Clear
2:15 PM 92.7 °F 96.2 °F 67.3 °F 43% 29.93 in 10.0 mi SSE 3.5 mph - N/A   Clear
2:35 PM 93.6 °F 96.9 °F 66.6 °F 41% 29.92 in 10.0 mi ESE 5.8 mph - N/A   Scattered Clouds
2:55 PM 93.4 °F 96.6 °F 66.6 °F 41% 29.91 in 10.0 mi NNE 3.5 mph - N/A   Scattered Clouds
3:15 PM 94.1 °F 96.4 °F 65.1 °F 38% 29.90 in 10.0 mi Calm Calm - N/A   Clear
3:35 PM 93.9 °F 96.1 °F 64.9 °F 38% 29.89 in 10.0 mi SSE 3.5 mph - N/A   Clear
3:55 PM 94.6 °F 96.8 °F 64.9 °F 37% 29.89 in 10.0 mi Calm Calm - N/A   Clear
4:15 PM 94.6 °F 97.3 °F 65.1 °F 38% 29.89 in 10.0 mi Calm Calm - N/A   Clear
4:35 PM 94.6 °F 98.3 °F 66.7 °F 40% 29.88 in 10.0 mi East 4.6 mph - N/A   Scattered Clouds
4:55 PM 94.1 °F 98.4 °F 67.5 °F 42% 29.88 in 10.0 mi East 6.9 mph - N/A   Clear
5:15 PM 94.5 °F 96.5 °F 64.6 °F 37% 29.88 in 10.0 mi East 3.5 mph - N/A   Clear
5:35 PM 94.1 °F 96.4 °F 64.6 °F 38% 29.88 in 10.0 mi SE 4.6 mph - N/A   Clear
5:55 PM 92.5 °F 97.4 °F 69.3 °F 46% 29.88 in 10.0 mi East 6.9 mph - N/A   Scattered Clouds
6:15 PM 90.9 °F 97.8 °F 71.6 °F 53% 29.88 in 10.0 mi East 10.4 mph - N/A   Scattered Clouds
6:35 PM 89.4 °F 96.8 °F 72.1 °F 57% 29.88 in 10.0 mi East 9.2 mph - N/A   Clear
6:55 PM 87.8 °F 94.7 °F 72.5 °F 60% 29.89 in 10.0 mi East 8.1 mph - N/A   Clear
7:15 PM 86.2 °F 93.0 °F 72.5 °F 64% 29.90 in 10.0 mi East 8.1 mph - N/A   Clear
7:35 PM 84.9 °F 91.1 °F 72.5 °F 66% 29.90 in 10.0 mi East 6.9 mph - N/A   Clear
7:55 PM 83.5 °F 89.4 °F 72.7 °F 70% 29.90 in 10.0 mi East 4.6 mph - N/A   Clear
8:15 PM 82.6 °F 88.1 °F 72.9 °F 72% 29.91 in 10.0 mi East 4.6 mph - N/A   Clear
8:35 PM 81.7 °F 86.9 °F 73.0 °F 75% 29.91 in 10.0 mi East 4.6 mph - N/A   Clear
8:55 PM 81.1 °F 86.0 °F 73.0 °F 76% 29.92 in 10.0 mi Calm Calm - N/A   Clear
9:15 PM 80.2 °F 84.6 °F 73.0 °F 79% 29.93 in 10.0 mi East 4.6 mph - N/A   Clear
9:35 PM 79.7 °F - 72.9 °F 80% 29.93 in 10.0 mi East 4.6 mph - N/A   Clear
9:55 PM 79.0 °F - 73.0 °F 82% 29.94 in 10.0 mi East 4.6 mph - N/A   Clear
10:15 PM 78.1 °F - 72.9 °F 84% 29.95 in 10.0 mi East 3.5 mph - N/A   Clear
10:35 PM 77.9 °F - 72.7 °F 84% 29.95 in 10.0 mi East 3.5 mph - N/A   Clear
10:55 PM 77.4 °F - 72.7 °F 85% 29.96 in 10.0 mi ENE 3.5 mph - N/A   Clear
11:15 PM 77.0 °F - 72.5 °F 86% 29.96 in 10.0 mi Calm Calm - N/A   Clear
11:35 PM 76.5 °F - 72.3 °F 87% 29.96 in 10.0 mi Calm Calm - N/A   Clear
11:55 PM 76.1 °F - 72.0 °F 87% 29.96 in 10.0 mi NNE 3.5 mph - N/A   Clear